Regional Weather Roundup
Issued by NWS

Home | Current Version | Previous Version | Text Only | Print | Product List | Glossary On
Versions: 1 2 3 4 5 6 7 8 9 10 11 12 13 14 15 16 17 18 19 20 21 22 23 24 25 26 27
000
ASUS45 KBOI 231410
RWRID

IDAHO REGIONAL WEATHER ROUNDUP
NATIONAL WEATHER SERVICE BOISE ID
700 AM MST FRI FEB 23 2018

NOTE: "FAIR" INDICATES FEW OR NO CLOUDS BELOW 12000 FEET
WITH NO SIGNIFICANT WEATHER AND/OR OBSTRUCTIONS TO VISIBILITY

IDZ012-014-231500-
SOUTHWEST IDAHO


CITY           SKY/WX    TMP DP  RH WIND       PRES   REMARKS
BOISE          CLEAR     13   8  81 CALM      30.23R
CALDWELL       CLEAR     17   9  70 W10       30.28R WCI   5
MOUNTAIN HOME  CLEAR     14  14  98 W14       30.20R WCI   0
$$

IDZ016-017-231500-
SOUTHCENTRAL IDAHO


CITY           SKY/WX    TMP DP  RH WIND       PRES   REMARKS
BURLEY         LGT SNOW  16  13  88 W14       30.09R FOG     WCI   2
JEROME         CLOUDY    13  11  92 SW14      30.11R WCI  -2
TWIN FALLS     CLOUDY    13  10  88 SW14      30.12R WCI  -2
$$

IDZ019>023-231500-
SOUTHEAST IDAHO


CITY           SKY/WX    TMP DP  RH WIND       PRES   REMARKS
IDAHO FALLS    PTCLDY    13  11  92 CALM      30.05R
POCATELLO      CLOUDY    17  12  80 SW14      30.07R WCI   3
REXBURG        CLOUDY    14  12  92 SW7       30.03R WCI   4
$$

IDZ006-010-011-018-031-032-231500-
CENTRAL IDAHO MOUNTAINS


CITY           SKY/WX    TMP DP  RH WIND       PRES   REMARKS
MCCALL         CLEAR      0  -3  87 N6        30.08R WCI -12
HAILEY         PTCLDY     5   0  78 NW6       30.02S WCI  -6
STANLEY          N/A    -15 -22  70 CALM      30.02R
SALMON         FLURRIES  17  10  74 N3        30.14R
CHALLIS        CLOUDY    10   1  67 CALM      30.06R
$$

IDZ002-004-006-007-026-231500-
NORTHERN IDAHO


CITY           SKY/WX    TMP DP  RH WIND       PRES   REMARKS
LEWISTON       CLOUDY    26  14  60 S10       30.37S WCI  16
LOWELL           N/A     24  21  88 CALM      30.38R
COEUR D`ALENE  CLOUDY    12   8  84 SW5       30.28S WCI   4
MULLAN PASS    LGT SNOW   7   4  87 VRB5      29.99S FOG     WCI  -2
$$




USA.gov is the U.S. government's official web portal to all federal, state and local government web resources and services.